Jackson, MN

12:13 AM CDT on May 22, 2018 (GMT -0500)
Jackson Municipal

Weather History for KMJQ - February, 2014

Change the Weather History Date:

Saturday, February 22, 2014

  Actual Average Record
Temperature  
Mean Temperature 14 °F -  
Max Temperature 21 °F 30 °F 62 °F (2017)
Min Temperature 8 °F 16 °F -5 °F (2015)
Degree Days  
Heating Degree Days 50    
Moisture  
Dew Point 5 °F    
Average Humidity 67    
Maximum Humidity 79    
Minimum Humidity 58    
Precipitation  
Precipitation 0.00 in - - ()
Sea Level Pressure  
Sea Level Pressure 29.99 in    
Wind  
Wind Speed 10 mph (WNW)    
Max Wind Speed 17 mph    
Max Gust Speed 21 mph    
Visibility 10 miles    
Events      
Averages and records for this station are not official NWS values.
T = Trace of Precipitation, MM = Missing Value Source: NWS Daily Summary

Daily Weather History Graph

Daily Weather History Graph

Search for Another Location

Airport or City:

Astronomy

Feb. 22, 2014 Rise Set
Actual Time 7:07 AM CST 5:59 PM CST
Civil Twilight 6:38 AM CST 6:28 PM CST
Nautical Twilight 6:05 AM CST 7:02 PM CST
Astronomical Twilight 5:32 AM CST 7:35 PM CST
Moon 1:08 AM CST 11:06 AM CST
Length of Visible Light 11h 49m
Length of Day
10h 51m
Waning Gibbous, 50% of the Moon is Illuminated
Feb 22
Waning Gibbous
Mar 1
New
Mar 8
First Quarter
Mar 16
Full
Mar 23
Last Quarter

Hourly Weather History & Observations

Time (CST) Temp. Windchill Dew Point Humidity Pressure Visibility Wind Dir Wind Speed Gust Speed Precip Events Conditions
12:12 AM 17.6 °F 3.2 °F 5.0 °F 58% 29.82 in 10.0 mi NW 15.0 mph - N/A   Clear
12:33 AM 15.8 °F 3.4 °F 3.2 °F 58% 29.83 in 10.0 mi WNW 10.4 mph - N/A   Clear
12:53 AM 14.0 °F 3.9 °F 3.2 °F 62% 29.84 in 10.0 mi West 6.9 mph - N/A   Clear
1:12 AM 12.2 °F 4.3 °F 3.2 °F 67% 29.85 in 10.0 mi West 4.6 mph - N/A   Clear
1:33 AM 10.4 °F -0.4 °F 1.4 °F 67% 29.86 in 10.0 mi West 6.9 mph - N/A   Clear
1:52 AM 8.6 °F 0.1 °F 1.4 °F 73% 29.86 in 10.0 mi West 4.6 mph - N/A   Clear
2:13 AM 8.6 °F -4.7 °F -0.4 °F 67% 29.88 in 10.0 mi West 9.2 mph - N/A   Clear
2:32 AM 10.4 °F -1.5 °F 1.4 °F 67% 29.87 in 10.0 mi West 8.1 mph - N/A   Clear
2:53 AM 10.4 °F 2.2 °F 3.2 °F 73% 29.86 in 10.0 mi WSW 4.6 mph - N/A   Scattered Clouds
3:13 AM 10.4 °F 0.8 °F 3.2 °F 73% 29.88 in 10.0 mi WSW 5.8 mph - N/A   Clear
3:32 AM 10.4 °F -0.4 °F 1.4 °F 67% 29.88 in 10.0 mi West 6.9 mph - N/A   Clear
3:53 AM 10.4 °F -0.4 °F 1.4 °F 67% 29.89 in 10.0 mi West 6.9 mph - N/A   Clear
4:13 AM 10.4 °F -1.5 °F 1.4 °F 67% 29.89 in 10.0 mi West 8.1 mph - N/A   Clear
4:32 AM 8.6 °F -3.7 °F 1.4 °F 73% 29.90 in 10.0 mi West 8.1 mph - N/A   Clear
4:53 AM 10.4 °F -3.3 °F 1.4 °F 67% 29.91 in 10.0 mi WNW 10.4 mph - N/A   Clear
5:13 AM 10.4 °F -2.4 °F 1.4 °F 67% 29.91 in 10.0 mi WNW 9.2 mph - N/A   Scattered Clouds
5:32 AM 10.4 °F -4.1 °F 1.4 °F 67% 29.91 in 10.0 mi WNW 11.5 mph - N/A   Scattered Clouds
5:53 AM 10.4 °F -1.5 °F 1.4 °F 67% 29.93 in 10.0 mi WNW 8.1 mph - N/A   Scattered Clouds
6:12 AM 10.4 °F -0.4 °F 1.4 °F 67% 29.93 in 10.0 mi West 6.9 mph - N/A   Overcast
6:32 AM 10.4 °F -2.4 °F 1.4 °F 67% 29.94 in 10.0 mi WNW 9.2 mph - N/A   Overcast
6:53 AM 10.4 °F -1.5 °F 3.2 °F 73% 29.94 in 10.0 mi WNW 8.1 mph - N/A   Overcast
7:12 AM 10.4 °F -0.4 °F 1.4 °F 67% 29.94 in 10.0 mi WNW 6.9 mph - N/A   Overcast
7:32 AM 10.4 °F 0.8 °F 1.4 °F 67% 29.95 in 10.0 mi West 5.8 mph - N/A   Mostly Cloudy
7:53 AM 8.6 °F -1.3 °F 1.4 °F 73% 29.97 in 10.0 mi West 5.8 mph - N/A   Clear
8:12 AM 8.6 °F 0.1 °F -0.4 °F 67% 29.97 in 10.0 mi West 4.6 mph - N/A   Clear
8:32 AM 8.6 °F -1.3 °F 1.4 °F 73% 29.98 in 10.0 mi West 5.8 mph - N/A   Clear
8:53 AM 10.4 °F -2.4 °F 1.4 °F 67% 29.98 in 10.0 mi WNW 9.2 mph - N/A   Clear
9:12 AM 12.2 °F -2.5 °F 1.4 °F 62% 29.99 in 10.0 mi West 12.7 mph - N/A   Clear
9:32 AM 12.2 °F -1.0 °F 3.2 °F 67% 29.99 in 10.0 mi West 10.4 mph - N/A   Clear
9:53 AM 14.0 °F 1.2 °F 3.2 °F 62% 29.99 in 10.0 mi West 10.4 mph - N/A   Clear
10:12 AM 14.0 °F 1.2 °F 3.2 °F 62% 30.00 in 10.0 mi West 10.4 mph - N/A   Clear
10:33 AM 14.0 °F 1.2 °F 3.2 °F 62% 30.00 in 10.0 mi West 10.4 mph - N/A   Clear
10:53 AM 15.8 °F 2.7 °F 5.0 °F 62% 30.00 in 10.0 mi West 11.5 mph - N/A   Clear
11:12 AM 15.8 °F 2.1 °F 5.0 °F 62% 30.00 in 10.0 mi West 12.7 mph - N/A   Clear
11:32 AM 15.8 °F 2.1 °F 5.0 °F 62% 30.00 in 10.0 mi West 12.7 mph - N/A   Clear
11:53 AM 17.6 °F 3.2 °F 5.0 °F 58% 30.01 in 10.0 mi West 15.0 mph - N/A   Clear
12:12 PM 17.6 °F 2.7 °F 6.8 °F 63% 30.00 in 10.0 mi WNW 16.1 mph - N/A   Clear
12:32 PM 17.6 °F 4.3 °F 8.6 °F 68% 30.00 in 10.0 mi WNW 12.7 mph 19.6 mph N/A   Clear
12:53 PM 17.6 °F 2.7 °F 6.8 °F 63% 30.00 in 10.0 mi WNW 16.1 mph - N/A   Clear
1:13 PM 19.4 °F 5.5 °F 8.6 °F 63% 30.01 in 10.0 mi West 15.0 mph 18.4 mph N/A   Clear
1:32 PM 19.4 °F 6.0 °F 6.8 °F 58% 30.00 in 10.0 mi West 13.8 mph - N/A   Clear
1:53 PM 19.4 °F 6.0 °F 8.6 °F 63% 30.00 in 10.0 mi WNW 13.8 mph - N/A   Clear
2:13 PM 19.4 °F 6.0 °F 8.6 °F 63% 30.00 in 10.0 mi WNW 13.8 mph - N/A   Clear
2:32 PM 19.4 °F 6.6 °F 8.6 °F 63% 30.00 in 10.0 mi WNW 12.7 mph - N/A   Clear
2:53 PM 19.4 °F 5.5 °F 8.6 °F 63% 30.00 in 10.0 mi WNW 15.0 mph - N/A   Clear
3:13 PM 21.2 °F 8.3 °F 8.6 °F 58% 30.01 in 10.0 mi West 13.8 mph - N/A   Clear
3:32 PM 21.2 °F 7.3 °F 8.6 °F 58% 30.02 in 10.0 mi WNW 16.1 mph 20.7 mph N/A   Clear
3:53 PM 21.2 °F 6.8 °F 8.6 °F 58% 30.02 in 10.0 mi WNW 17.3 mph - N/A   Clear
4:13 PM 21.2 °F 8.3 °F 10.4 °F 63% 30.02 in 10.0 mi West 13.8 mph - N/A   Clear
4:32 PM 21.2 °F 8.9 °F 10.4 °F 63% 30.02 in 10.0 mi West 12.7 mph - N/A   Clear
4:53 PM 21.2 °F 9.5 °F 10.4 °F 63% 30.03 in 10.0 mi WNW 11.5 mph - N/A   Clear
5:13 PM 21.2 °F 9.5 °F 10.4 °F 63% 30.03 in 10.0 mi WNW 11.5 mph - N/A   Clear
5:32 PM 19.4 °F 7.2 °F 10.4 °F 68% 30.03 in 10.0 mi West 11.5 mph - N/A   Clear
5:53 PM 19.4 °F 7.9 °F 10.4 °F 68% 30.04 in 10.0 mi WNW 10.4 mph - N/A   Clear
6:12 PM 17.6 °F 5.7 °F 8.6 °F 68% 30.05 in 10.0 mi WNW 10.4 mph - N/A   Clear
6:33 PM 17.6 °F 5.7 °F 8.6 °F 68% 30.07 in 10.0 mi West 10.4 mph - N/A   Clear
6:53 PM 17.6 °F 5.7 °F 8.6 °F 68% 30.08 in 10.0 mi West 10.4 mph - N/A   Clear
7:12 PM 17.6 °F 6.4 °F 8.6 °F 68% 30.08 in 10.0 mi WNW 9.2 mph - N/A   Clear
7:33 PM 17.6 °F 5.7 °F 8.6 °F 68% 30.08 in 10.0 mi WNW 10.4 mph - N/A   Clear
7:53 PM 17.6 °F 5.7 °F 8.6 °F 68% 30.08 in 10.0 mi NW 10.4 mph - N/A   Clear
8:12 PM 14.0 °F 2.9 °F 8.6 °F 79% 30.08 in 10.0 mi NNW 8.1 mph - N/A   Clear
8:33 PM 14.0 °F 3.9 °F 8.6 °F 79% 30.10 in 10.0 mi NW 6.9 mph - N/A   Clear
8:53 PM 14.0 °F 5.1 °F 8.6 °F 79% 30.11 in 10.0 mi NW 5.8 mph - N/A   Clear
9:12 PM 12.2 °F 0.7 °F 5.0 °F 73% 30.12 in 10.0 mi WNW 8.1 mph - N/A   Clear
9:33 PM 12.2 °F 1.7 °F 6.8 °F 79% 30.13 in 10.0 mi WNW 6.9 mph - N/A   Clear
9:53 PM 14.0 °F 2.9 °F 5.0 °F 67% 30.14 in 10.0 mi NW 8.1 mph - N/A   Clear
10:12 PM 14.0 °F 1.2 °F 5.0 °F 67% 30.13 in 10.0 mi NW 10.4 mph - N/A   Clear
10:33 PM 14.0 °F 2.0 °F 5.0 °F 67% 30.14 in 10.0 mi NW 9.2 mph - N/A   Clear
10:53 PM 12.2 °F -0.2 °F 5.0 °F 73% 30.14 in 10.0 mi WNW 9.2 mph - N/A   Clear
11:12 PM 12.2 °F -1.8 °F 5.0 °F 73% 30.14 in 10.0 mi NW 11.5 mph - N/A   Clear
11:33 PM 12.2 °F -1.0 °F 5.0 °F 73% 30.15 in 10.0 mi NW 10.4 mph - N/A   Scattered Clouds
11:52 PM 12.2 °F -1.8 °F 5.0 °F 73% 30.15 in 10.0 mi NW 11.5 mph - N/A   Clear